Weather in Oktyabrskoye

Russia / Novosibirsk Oblast     53°30′45″N   77°48′22″E
temp.,
°C
wind,
m/s
gust,
m/s
humid.,
%
clouds,
%
prec.,
mm/h
press.,
hPa
HPBL,
m
2 march, tue
tue201:00−11nw239698 0.4 101242
04:00−12wnw359690 0.1 1014100
07:00−16wnw349787 0.1 101647
10:00−17w339783 0.0 101766
13:00−14w239185 0.1 1017253
16:00−12wsw3491100 0.1 1017400
19:00−14w2295100 0.1 101720
22:00−14wsw2296100 0.1 101734
3 march, wed
wed301:00−16wsw239686 0.1 101734
04:00−17sw339780 0.1 101758
07:00−16sw239682 0.1 101882
10:00−15ssw379675 0.1 1019229
13:00−12sw589284 0.1 1020439
16:00−12ssw6990100 0.0 1020445
19:00−13ssw5129199 0.0 1020366
22:00−13ssw6129055 0.0 1020325
4 march, thu
thu401:00−11ssw7138878 0.0 1019372
04:00−10ssw71389100 0.0 1018361
07:00−9ssw71490100 0.0 1018368
10:00−7ssw81489100 0.0 1016496
13:00−4ssw91492100 0.2 1016652
16:00−2ssw91492100 0.3 1014759
19:00−2ssw81684100 0.3 1014694
22:00−3ssw81684100 0.0 1013462
5 march, fri
fri501:00−5s81583100 0.0 1012398
04:00−6ssw61287100 0.0 1010333
07:00−6ssw61195100 0.4 1009359
10:00−4sw6996100 1.1 1010437
13:00−5w8128684 1.4 1014581
16:00−6wsw813860 0.0 1018563
19:00−8sw815860 0.0 1020506
22:00−7sw10188257 0.0 1020749
6 march, sat
sat601:00−6sw10178578 0.0 1020793
04:00−5sw101691100 0.2 1019855
07:00−6sw91687100 0.3 1020709
10:00−7sw91587100 0.0 1019609
13:00−6sw81387100 0.1 1019628
16:00−5sw81287100 0.0 1019735
19:00−6sw61388100 0.0 1020522
22:00−8sw5118997 0.0 1020220